Regional Weather Roundup
Issued by NWS

Home | Current Version | Previous Version | Text Only | Print | Product List | Glossary Off
Versions: 1 2 3 4 5 6 7 8 9 10 11 12 13 14 15 16 17 18 19 20 21 22 23 24 25 26 27 28 29 30 31 32 33 34 35 36 37 38 39 40 41 42 43 44 45 46 47 48 49 50

000
ASUS43 KLOT 290300
RWRIL

ILLINOIS REGIONAL WEATHER ROUNDUP
NATIONAL WEATHER SERVICE CHICAGO/ROMEOVILLE IL
1000 PM CDT TUE JUL 28 2015

NOTE: "FAIR" INDICATES FEW OR NO CLOUDS BELOW 12,000 FEET WITH NO
SIGNIFICANT WEATHER AND/OR OBSTRUCTIONS TO VISIBILITY.

* THESE STATIONS ARE NOT UNDER NWS QUALITY CONTROL. THEY ALSO MAY NOT
  REPORT WEATHER SUCH AS PRECIPITATION OR FOG.

ILZ001-002-007-009-015-016-024-290400-
NORTHWEST ILLINOIS

CITY           SKY/WX    TMP DP  RH WIND       PRES   REMARKS
MOLINE         CLOUDY    79  74  84 S6        29.90R HX  82
STERLING*      CLOUDY    75  73  94 S3        29.90F
$$

ILZ003-004-008-010-011-017-018-290400-
NORTH CENTRAL ILLINOIS

CITY           SKY/WX    TMP DP  RH WIND       PRES   REMARKS
ROCKFORD       CLOUDY    78  72  81 S3        29.93F HX  80
$$

ILZ005-006-012>014-019>023-290400-
NORTHEAST ILLINOIS

CITY           SKY/WX    TMP DP  RH WIND       PRES   REMARKS
CHICAGO-OHARE  MOCLDY    81  73  76 SW5       29.94S HX  86
CHICAGO-MIDWAY MOCLDY    84  73  69 SW6       29.94S HX  90
AURORA         CLEAR     76  71  85 SE5       29.94F
LANSING*       CLEAR     77  69  77 SW3       29.96S
WAUKEGAN       CLEAR     73  70  90 CALM      29.93F
DUPAGE AIRPORT PTCLDY    77  74  90 S5        29.94F
WHEELING       PTCLDY    81  72  74 SE3       29.94F HX  85
NORTHERLY ISL    N/A     85  69  58 W3          N/A  HX  89
$$

LMZ740>746-290400-
SOUTHERN LAKE MICHIGAN

STATION/POSITION SKY/WX   TEMP    WIND        PRES    VSBY  WAVE
                          AIR SEA DIR/SP/G                  HT/PER
                          (F)     (DEG/KT/KT) (MB)    (MI)  (FT/S)
HARRISON CRIB              84     230/  9/ 12   N/A
BURNHAM HARBOR             85     240/  4/  8   N/A
CALUMET HARBOR             85     210/  2/  4   N/A
BURNS HARBOR               85     180/  4/  5 1014.6R
MICHIGAN CITY              84     120/  5/  7   N/A
MICHIGAN CITY 6N           80 76  160/  4/  6   N/A           0
ST. JOSEPH                 79 77  180/  4/  4   N/A           0
$$

ILZ025>027-034>036-040-047-049-050-058-095>099-290400-
WEST-CENTRAL ILLINOIS

CITY           SKY/WX    TMP DP  RH WIND       PRES   REMARKS
QUINCY         PTCLDY    84  80  88 SE5       29.94R HX  97
MACOMB*        PTCLDY    80  78  92 S6        29.92F HX  88
$$

ILZ028>032-037-038-041>044-048-051>054-059>061-290400-
CENTRAL ILLINOIS

CITY           SKY/WX    TMP DP  RH WIND       PRES   REMARKS
DECATUR        MOCLDY    77  73  87 CALM      29.97S
PEORIA         PTCLDY    81  74  79 SE7       29.93F HX  86
SPRINGFIELD    MOCLDY    82  76  81 SE6       29.94S HX  89
TAYLORVILLE    NOT AVBL
$$

ILZ033-039-045-046-055>057-062-063-290400-
EAST-CENTRAL ILLINOIS

CITY           SKY/WX    TMP DP  RH WIND       PRES   REMARKS
CHAMPAIGN      PTCLDY    75  73  93 CALM      29.98R
MATTOON        MOCLDY    76  72  87 S5        29.97R
$$

ILZ079-100>102-290400-
SOUTHWEST ILLINOIS

CITY           SKY/WX    TMP DP  RH WIND       PRES   REMARKS
ALTON          PTCLDY    79  77  94 SE6       29.95S HX  83
BELLEVILLE     CLOUDY    80  80 100 CALM      29.94R HX  86
CAHOKIA*       MOCLDY    81  76  84 S5        29.94R HX  87
SPARTA*        CLOUDY    79  76  90 CALM      29.97R HX  82
$$

ILZ064>066-069>071-074>076-080>082-084>086-088>090-092>094-290400-
SOUTH-CENTRAL ILLINOIS

CITY           SKY/WX    TMP DP  RH WIND       PRES   REMARKS
CARBONDALE     CLOUDY    79  76  90 SE5       29.98R HX  83
MT. VERNON     CLOUDY    77  70  78 CALM      29.98S
SALEM*         CLOUDY    84  75  74 S5        29.98R HX  92
$$

ILZ067-068-072-073-078-083-087-091-290400-
SOUTHEAST ILLINOIS

CITY           SKY/WX    TMP DP  RH WIND       PRES   REMARKS
LAWRENCEVILLE  MOCLDY    81  78  91 S5        29.98R HX  89
HARRISBURG*    LGT RAIN  78  77  98 CALM      30.00R
$$

ABBREVIATIONS USED IN REMARKS
   TC - TEMPERATURE IN CELSIUS
  WCI - WIND CHILL INDEX
   HX - HEAT INDEX
  VSB - VISIBILITY
$$



USA.gov is the U.S. government's official web portal to all federal, state and local government web resources and services.